DLH3PJ ESGG-EDDM

Flight info

Callsign DLH3PJ
Flight time 1h 28m
Altitude 37000
Route TOPLA3J TOPLA L996 ERNOV DCT NIKDA/N0455F380 DCT MAG/N0454F370 DCT ALOSO T703 SODRO/N0454F310 T703 LULAR/N0456F300 T105 LANDU LANDU2B
Aircraft A320/M-V/N

Departure

Time 2026-05-06 19:32
Airport Göteborg Landvetter Airport (ESGG)

Arrival

Time 2026-05-06 21:01
Airport Munich Airport (EDDM)
Time Latitude Longitude Altitude Speed Heading
2026-05-06 19:12 57.66888 12.29424 525 ft 0 kts 116°
2026-05-06 19:23 57.66891 12.29409 524 ft 4 kts 115°
2026-05-06 19:23 57.66902 12.29363 524 ft 4 kts 110°
2026-05-06 19:24 57.66909 12.29316 522 ft 4 kts 86°
2026-05-06 19:24 57.66902 12.29279 520 ft 4 kts 32°
2026-05-06 19:24 57.66891 12.29271 520 ft 1 kts 28°
2026-05-06 19:28 57.66892 12.29271 520 ft 1 kts 28°
2026-05-06 19:28 57.66920 12.29299 520 ft 8 kts 27°
2026-05-06 19:28 57.66951 12.29328 519 ft 1 kts 27°
2026-05-06 19:28 57.66964 12.29335 518 ft 4 kts 359°
2026-05-06 19:29 57.67016 12.29198 516 ft 16 kts 316°
2026-05-06 19:29 57.67114 12.29248 516 ft 16 kts 25°
2026-05-06 19:29 57.67221 12.29347 516 ft 18 kts 26°
2026-05-06 19:29 57.67342 12.29456 515 ft 20 kts 26°
2026-05-06 19:30 57.67423 12.29437 518 ft 12 kts 300°
2026-05-06 19:30 57.67458 12.29292 517 ft 10 kts 289°
2026-05-06 19:30 57.67460 12.29281 516 ft 0 kts 284°
2026-05-06 19:31 57.67461 12.29223 514 ft 13 kts 266°
2026-05-06 19:31 57.67325 12.28920 515 ft 28 kts 205°
2026-05-06 19:32 57.66912 12.28546 518 ft 102 kts 206°
2026-05-06 19:32 57.66096 12.27802 514 ft 157 kts 206°
2026-05-06 19:32 57.65061 12.26873 1059 ft 164 kts 207°
2026-05-06 19:32 57.64032 12.25940 1809 ft 166 kts 207°
2026-05-06 19:33 57.62940 12.24942 2240 ft 185 kts 207°
2026-05-06 19:33 57.61711 12.23822 2573 ft 208 kts 206°
2026-05-06 19:33 57.60263 12.22990 2939 ft 231 kts 190°
2026-05-06 19:33 57.58580 12.22641 3461 ft 253 kts 185°
2026-05-06 19:34 57.56801 12.22460 4405 ft 258 kts 183°
2026-05-06 19:34 57.55002 12.22539 5404 ft 261 kts 171°
2026-05-06 19:34 57.53208 12.23160 6410 ft 264 kts 171°
2026-05-06 19:34 57.51386 12.23723 7334 ft 267 kts 172°
2026-05-06 19:35 57.49536 12.24252 8246 ft 272 kts 172°
2026-05-06 19:35 57.47649 12.24773 9148 ft 276 kts 172°
2026-05-06 19:35 57.45732 12.25295 10030 ft 281 kts 173°
2026-05-06 19:35 57.43742 12.25827 10414 ft 304 kts 173°
2026-05-06 19:36 57.41568 12.26399 10697 ft 328 kts 173°
2026-05-06 19:36 57.39246 12.27011 11098 ft 344 kts 173°
2026-05-06 19:36 57.36850 12.27651 11775 ft 351 kts 173°
2026-05-06 19:36 57.34413 12.28312 12510 ft 357 kts 173°
2026-05-06 19:37 57.31931 12.28989 13237 ft 362 kts 173°
2026-05-06 19:37 57.29423 12.29670 13954 ft 367 kts 173°
2026-05-06 19:37 57.26877 12.30355 14620 ft 371 kts 174°
2026-05-06 19:37 57.24304 12.31039 15305 ft 375 kts 174°
2026-05-06 19:38 57.21715 12.31725 15976 ft 378 kts 174°
2026-05-06 19:38 57.19103 12.32419 16650 ft 381 kts 174°
2026-05-06 19:38 57.16466 12.33117 17324 ft 384 kts 175°
2026-05-06 19:38 57.13807 12.33818 17974 ft 387 kts 175°
2026-05-06 19:39 57.11164 12.34508 18556 ft 390 kts 175°
2026-05-06 19:39 57.08468 12.35189 19126 ft 392 kts 176°
2026-05-06 19:39 57.05758 12.35858 19692 ft 394 kts 176°
2026-05-06 19:39 57.03030 12.36521 20267 ft 396 kts 176°
2026-05-06 19:40 57.00283 12.37187 20820 ft 398 kts 176°
2026-05-06 19:40 56.97529 12.37860 21365 ft 401 kts 177°
2026-05-06 19:40 56.94753 12.38549 21903 ft 403 kts 177°
2026-05-06 19:40 56.91968 12.39242 22438 ft 405 kts 177°
2026-05-06 19:41 56.89165 12.39936 22945 ft 408 kts 177°
2026-05-06 19:41 56.86340 12.40630 23479 ft 410 kts 178°
2026-05-06 19:41 56.83501 12.41329 23893 ft 412 kts 177°
2026-05-06 19:41 56.80691 12.42019 24310 ft 414 kts 177°
2026-05-06 19:42 56.77797 12.42729 24739 ft 415 kts 177°
2026-05-06 19:42 56.74963 12.43425 25154 ft 416 kts 177°
2026-05-06 19:42 56.72087 12.44128 25570 ft 418 kts 177°
2026-05-06 19:42 56.69203 12.44834 25993 ft 419 kts 177°
2026-05-06 19:43 56.66307 12.45537 26397 ft 421 kts 177°
2026-05-06 19:43 56.63542 12.46206 26778 ft 422 kts 177°
2026-05-06 19:43 56.60621 12.46908 27159 ft 424 kts 177°
2026-05-06 19:43 56.57694 12.47608 27526 ft 425 kts 177°
2026-05-06 19:44 56.54750 12.48315 27884 ft 427 kts 177°
2026-05-06 19:44 56.51796 12.49031 28230 ft 429 kts 177°
2026-05-06 19:44 56.48830 12.49754 28569 ft 431 kts 177°
2026-05-06 19:44 56.45852 12.50481 28923 ft 432 kts 176°
2026-05-06 19:45 56.42902 12.51198 29246 ft 434 kts 176°
2026-05-06 19:45 56.39902 12.51922 29637 ft 434 kts 176°
2026-05-06 19:45 56.36915 12.52638 30117 ft 432 kts 176°
2026-05-06 19:45 56.33936 12.53349 30517 ft 431 kts 176°
2026-05-06 19:46 56.30969 12.54058 30881 ft 430 kts 176°
2026-05-06 19:46 56.28001 12.54766 31229 ft 430 kts 176°
2026-05-06 19:46 56.25031 12.55471 31586 ft 430 kts 176°
2026-05-06 19:46 56.22066 12.56165 31939 ft 430 kts 176°
2026-05-06 19:47 56.19103 12.56854 32293 ft 429 kts 177°
2026-05-06 19:47 56.16137 12.57136 32629 ft 425 kts 185°
2026-05-06 19:47 56.13202 12.56677 32969 ft 423 kts 189°
2026-05-06 19:47 56.10279 12.56104 33316 ft 422 kts 189°
2026-05-06 19:48 56.07358 12.55537 33667 ft 422 kts 189°
2026-05-06 19:48 56.04433 12.54978 34009 ft 422 kts 189°
2026-05-06 19:48 56.01510 12.54424 34291 ft 423 kts 189°
2026-05-06 19:48 55.98584 12.53875 34552 ft 423 kts 189°
2026-05-06 19:49 55.95651 12.53324 34818 ft 424 kts 189°
2026-05-06 19:49 55.92718 12.52769 35069 ft 425 kts 189°
2026-05-06 19:49 55.89777 12.52211 35316 ft 425 kts 189°
2026-05-06 19:49 55.86830 12.51649 35560 ft 426 kts 189°
2026-05-06 19:50 55.83885 12.51092 35801 ft 427 kts 189°
2026-05-06 19:50 55.80929 12.50538 36035 ft 427 kts 189°
2026-05-06 19:50 55.77971 12.49984 36273 ft 428 kts 189°
2026-05-06 19:50 55.75011 12.49429 36510 ft 428 kts 189°
2026-05-06 19:51 55.72086 12.48879 36729 ft 429 kts 189°
2026-05-06 19:51 55.69076 12.48314 36935 ft 429 kts 189°
2026-05-06 19:51 55.63125 12.47190 37002 ft 431 kts 189°
2026-05-06 19:52 55.57196 12.46082 37000 ft 431 kts 189°
2026-05-06 19:52 55.51223 12.44971 36998 ft 431 kts 189°
2026-05-06 19:53 55.45250 12.43860 36984 ft 431 kts 189°
2026-05-06 19:53 55.39281 12.42748 36981 ft 431 kts 189°
2026-05-06 19:54 55.33309 12.41660 36979 ft 431 kts 189°
2026-05-06 19:54 55.27338 12.40568 37197 ft 430 kts 189°
2026-05-06 19:55 55.24364 12.40021 37469 ft 429 kts 189°
2026-05-06 19:55 55.21390 12.39475 37727 ft 429 kts 189°
2026-05-06 19:55 55.18425 12.38929 37929 ft 429 kts 189°
2026-05-06 19:55 55.15446 12.38377 37978 ft 431 kts 189°
2026-05-06 19:56 55.09473 12.37283 37975 ft 432 kts 189°
2026-05-06 19:56 55.03499 12.36202 37977 ft 432 kts 189°
2026-05-06 19:57 54.97523 12.35130 37976 ft 431 kts 189°
2026-05-06 19:57 54.91589 12.34061 37975 ft 431 kts 189°
2026-05-06 19:58 54.85616 12.32985 37970 ft 431 kts 189°
2026-05-06 19:58 54.79639 12.31908 37971 ft 431 kts 189°
2026-05-06 19:59 54.73665 12.30835 37961 ft 431 kts 189°
2026-05-06 19:59 54.67701 12.29758 37963 ft 431 kts 189°
2026-05-06 20:00 54.61742 12.28701 37959 ft 431 kts 189°
2026-05-06 20:00 54.55764 12.27593 37948 ft 430 kts 189°
2026-05-06 20:01 54.49841 12.26388 37949 ft 430 kts 189°
2026-05-06 20:01 54.43936 12.25176 37949 ft 430 kts 189°
2026-05-06 20:02 54.37990 12.23988 37944 ft 430 kts 189°
2026-05-06 20:02 54.32047 12.22825 37938 ft 430 kts 189°
2026-05-06 20:03 54.26097 12.21665 37936 ft 430 kts 189°
2026-05-06 20:03 54.20154 12.20497 37932 ft 430 kts 189°
2026-05-06 20:04 54.14211 12.19327 37923 ft 430 kts 189°
2026-05-06 20:04 54.08271 12.18156 37920 ft 430 kts 189°
2026-05-06 20:05 54.02332 12.16998 37920 ft 430 kts 189°
2026-05-06 20:05 53.96387 12.15857 37915 ft 430 kts 189°
2026-05-06 20:06 53.90432 12.14715 37918 ft 430 kts 189°
2026-05-06 20:06 53.84484 12.13556 37916 ft 430 kts 189°
2026-05-06 20:07 53.78573 12.12425 37915 ft 430 kts 189°
2026-05-06 20:07 53.72613 12.11285 37915 ft 430 kts 189°
2026-05-06 20:08 53.66662 12.10145 37918 ft 430 kts 189°
2026-05-06 20:08 53.60704 12.09004 37917 ft 430 kts 189°
2026-05-06 20:09 53.54743 12.07869 37913 ft 430 kts 189°
2026-05-06 20:09 53.48790 12.06744 37912 ft 430 kts 189°
2026-05-06 20:10 53.42880 12.05631 37913 ft 430 kts 189°
2026-05-06 20:10 53.36930 12.04511 37902 ft 430 kts 189°
2026-05-06 20:11 53.30975 12.03390 37910 ft 430 kts 189°
2026-05-06 20:11 53.25026 12.02273 37908 ft 430 kts 189°
2026-05-06 20:12 53.19117 12.01164 37907 ft 430 kts 189°
2026-05-06 20:12 53.13176 12.00062 37905 ft 430 kts 189°
2026-05-06 20:13 53.07229 11.98954 37900 ft 429 kts 189°
2026-05-06 20:13 53.01297 11.97850 37893 ft 429 kts 189°
2026-05-06 20:14 52.95368 11.96753 37887 ft 428 kts 189°
2026-05-06 20:14 52.89444 11.95656 37880 ft 428 kts 189°
2026-05-06 20:15 52.83521 11.94568 37876 ft 428 kts 189°
2026-05-06 20:15 52.77628 11.93483 37875 ft 428 kts 189°
2026-05-06 20:16 52.71700 11.92404 37868 ft 428 kts 189°
2026-05-06 20:16 52.65771 11.91325 37864 ft 428 kts 189°
2026-05-06 20:17 52.59843 11.90248 37861 ft 428 kts 189°
2026-05-06 20:17 52.54916 11.89348 37863 ft 429 kts 189°
2026-05-06 20:18 52.48980 11.88265 37860 ft 429 kts 189°
2026-05-06 20:18 52.43053 11.87192 37852 ft 429 kts 189°
2026-05-06 20:19 52.37116 11.86126 37853 ft 429 kts 189°
2026-05-06 20:19 52.31181 11.85070 37852 ft 429 kts 188°
2026-05-06 20:20 52.25247 11.84021 37850 ft 429 kts 189°
2026-05-06 20:20 52.19314 11.82959 37847 ft 429 kts 189°
2026-05-06 20:21 52.13421 11.81901 37848 ft 429 kts 189°
2026-05-06 20:21 52.07485 11.80847 37845 ft 429 kts 189°
2026-05-06 20:22 52.01559 11.79794 37846 ft 429 kts 189°
2026-05-06 20:22 51.95610 11.78939 37845 ft 429 kts 186°
2026-05-06 20:23 51.92620 11.79126 37851 ft 433 kts 175°
2026-05-06 20:23 51.89637 11.79851 37847 ft 433 kts 175°
2026-05-06 20:23 51.83679 11.81344 37846 ft 433 kts 174°
2026-05-06 20:24 51.77732 11.82863 37842 ft 432 kts 174°
2026-05-06 20:24 51.71791 11.84369 37844 ft 432 kts 174°
2026-05-06 20:25 51.67863 11.85352 37836 ft 431 kts 174°
2026-05-06 20:25 51.64344 11.86265 37837 ft 431 kts 174°
2026-05-06 20:26 51.58459 11.87732 37836 ft 430 kts 175°
2026-05-06 20:26 51.52545 11.89173 37837 ft 430 kts 174°
2026-05-06 20:27 51.46633 11.90629 37841 ft 429 kts 174°
2026-05-06 20:27 51.40732 11.92091 37841 ft 429 kts 174°
2026-05-06 20:28 51.34829 11.93559 37839 ft 429 kts 174°
2026-05-06 20:28 51.28938 11.95017 37831 ft 428 kts 174°
2026-05-06 20:29 51.23052 11.96471 37828 ft 428 kts 175°
2026-05-06 20:29 51.17168 11.97915 37816 ft 428 kts 175°
2026-05-06 20:30 51.08350 12.00065 37811 ft 427 kts 175°
2026-05-06 20:31 51.02483 12.01491 37821 ft 426 kts 174°
2026-05-06 20:31 50.96664 12.02909 37817 ft 426 kts 174°
2026-05-06 20:32 50.90811 12.04331 37815 ft 425 kts 175°
2026-05-06 20:32 50.84924 12.05745 37811 ft 425 kts 174°
2026-05-06 20:33 50.79121 12.07146 37803 ft 425 kts 174°
2026-05-06 20:33 50.73276 12.08564 37799 ft 425 kts 174°
2026-05-06 20:34 50.67436 12.09980 37799 ft 425 kts 174°
2026-05-06 20:34 50.61594 12.11421 37795 ft 425 kts 173°
2026-05-06 20:35 50.55751 12.13007 37799 ft 426 kts 173°
2026-05-06 20:35 50.49914 12.14626 37806 ft 426 kts 173°
2026-05-06 20:36 50.44060 12.16220 37813 ft 427 kts 173°
2026-05-06 20:36 50.38205 12.17780 37819 ft 427 kts 173°
2026-05-06 20:37 50.32607 12.19265 37822 ft 427 kts 173°
2026-05-06 20:37 50.26745 12.20823 37820 ft 428 kts 173°
2026-05-06 20:38 50.20875 12.22389 37818 ft 428 kts 173°
2026-05-06 20:38 50.15035 12.23938 37812 ft 428 kts 173°
2026-05-06 20:39 50.09166 12.25486 37805 ft 428 kts 173°
2026-05-06 20:39 50.03294 12.27029 37799 ft 428 kts 173°
2026-05-06 20:40 49.97425 12.28582 37793 ft 428 kts 173°
2026-05-06 20:40 49.91551 12.30134 37794 ft 429 kts 173°
2026-05-06 20:41 49.85659 12.31683 37803 ft 430 kts 173°
2026-05-06 20:41 49.79760 12.33230 37797 ft 429 kts 173°
2026-05-06 20:41 49.76813 12.34001 37540 ft 429 kts 173°
2026-05-06 20:42 49.73871 12.34770 37270 ft 428 kts 174°
2026-05-06 20:42 49.70939 12.35531 37005 ft 427 kts 174°
2026-05-06 20:42 49.68014 12.36285 36520 ft 426 kts 174°
2026-05-06 20:42 49.65083 12.37039 35695 ft 428 kts 174°
2026-05-06 20:43 49.62134 12.37798 34940 ft 429 kts 174°
2026-05-06 20:43 49.59210 12.38557 34351 ft 425 kts 174°
2026-05-06 20:43 49.56300 12.39317 33603 ft 424 kts 174°
2026-05-06 20:43 49.53396 12.40075 32717 ft 423 kts 174°
2026-05-06 20:44 49.50492 12.40826 31753 ft 425 kts 173°
2026-05-06 20:44 49.47559 12.41576 30730 ft 428 kts 173°
2026-05-06 20:44 49.44608 12.42328 29643 ft 431 kts 172°
2026-05-06 20:44 49.41632 12.43080 28333 ft 436 kts 172°
2026-05-06 20:45 49.38653 12.43834 27073 ft 442 kts 172°
2026-05-06 20:45 49.35581 12.44623 25938 ft 443 kts 172°
2026-05-06 20:45 49.32572 12.45398 24896 ft 444 kts 172°
2026-05-06 20:45 49.29541 12.46176 24202 ft 437 kts 172°
2026-05-06 20:46 49.26545 12.46949 23199 ft 437 kts 172°
2026-05-06 20:46 49.23543 12.47706 22185 ft 436 kts 173°
2026-05-06 20:46 49.20514 12.47937 21167 ft 435 kts 186°
2026-05-06 20:46 49.17587 12.47003 20496 ft 427 kts 195°
2026-05-06 20:47 49.14732 12.45848 19815 ft 421 kts 195°
2026-05-06 20:47 49.11909 12.44738 19181 ft 415 kts 194°
2026-05-06 20:47 49.09115 12.43742 18568 ft 410 kts 193°
2026-05-06 20:47 49.06342 12.42862 17954 ft 404 kts 192°
2026-05-06 20:48 49.03572 12.42053 16854 ft 408 kts 191°
2026-05-06 20:48 49.00813 12.41276 16110 ft 405 kts 191°
2026-05-06 20:48 48.98027 12.40496 15463 ft 399 kts 192°
2026-05-06 20:48 48.95356 12.39730 14822 ft 393 kts 192°
2026-05-06 20:49 48.92690 12.38947 14171 ft 388 kts 193°
2026-05-06 20:49 48.90050 12.38161 13523 ft 383 kts 193°
2026-05-06 20:49 48.87451 12.37388 12862 ft 378 kts 192°
2026-05-06 20:49 48.84875 12.37303 12720 ft 369 kts 174°
2026-05-06 20:50 48.82457 12.38566 12590 ft 371 kts 156°
2026-05-06 20:50 48.80181 12.40428 12459 ft 371 kts 155°
2026-05-06 20:50 48.77858 12.42043 12331 ft 364 kts 168°
2026-05-06 20:50 48.75392 12.42762 12181 ft 361 kts 174°
2026-05-06 20:51 48.72911 12.43357 11844 ft 360 kts 175°
2026-05-06 20:51 48.70446 12.43954 11519 ft 358 kts 175°
2026-05-06 20:51 48.67994 12.44173 11193 ft 349 kts 190°
2026-05-06 20:51 48.65692 12.43199 10871 ft 342 kts 204°
2026-05-06 20:52 48.63547 12.41697 10527 ft 338 kts 213°
2026-05-06 20:52 48.61553 12.39826 10191 ft 335 kts 214°
2026-05-06 20:52 48.59595 12.37946 9854 ft 333 kts 214°
2026-05-06 20:52 48.57645 12.36074 9492 ft 331 kts 214°
2026-05-06 20:53 48.55706 12.34221 9023 ft 330 kts 215°
2026-05-06 20:53 48.53879 12.32151 8507 ft 327 kts 223°
2026-05-06 20:53 48.52215 12.29878 7983 ft 326 kts 225°
2026-05-06 20:53 48.50544 12.27580 7429 ft 324 kts 225°
2026-05-06 20:54 48.48878 12.25308 6886 ft 321 kts 225°
2026-05-06 20:54 48.47227 12.23088 6328 ft 317 kts 225°
2026-05-06 20:54 48.45561 12.20884 5564 ft 320 kts 225°
2026-05-06 20:54 48.43893 12.18689 5113 ft 312 kts 225°
2026-05-06 20:55 48.42308 12.16632 4992 ft 286 kts 225°
2026-05-06 20:55 48.40878 12.14807 5005 ft 254 kts 225°
2026-05-06 20:55 48.39685 12.13092 5006 ft 220 kts 237°
2026-05-06 20:55 48.38993 12.11189 5011 ft 200 kts 254°
2026-05-06 20:56 48.38730 12.09192 5019 ft 190 kts 265°
2026-05-06 20:56 48.38589 12.07277 4951 ft 181 kts 265°
2026-05-06 20:56 48.38439 12.05380 4641 ft 182 kts 265°
2026-05-06 20:56 48.38298 12.03528 4357 ft 175 kts 266°
2026-05-06 20:57 48.38163 12.01743 4107 ft 168 kts 266°
2026-05-06 20:57 48.38035 12.00021 3880 ft 163 kts 265°
2026-05-06 20:57 48.37910 11.98350 3660 ft 159 kts 265°
2026-05-06 20:57 48.37790 11.96728 3466 ft 153 kts 266°
2026-05-06 20:58 48.37678 11.95181 3256 ft 144 kts 266°
2026-05-06 20:58 48.37581 11.93720 3018 ft 137 kts 266°
2026-05-06 20:58 48.37488 11.92320 2868 ft 130 kts 266°
2026-05-06 20:58 48.37382 11.90988 2713 ft 130 kts 264°
2026-05-06 20:59 48.37273 11.89610 2513 ft 135 kts 264°
2026-05-06 20:59 48.37165 11.88204 2311 ft 137 kts 263°
2026-05-06 20:59 48.37059 11.86804 2106 ft 137 kts 261°
2026-05-06 20:59 48.36938 11.85344 1962 ft 139 kts 262°
2026-05-06 21:00 48.36821 11.83890 1740 ft 140 kts 262°
2026-05-06 21:00 48.36714 11.82435 1569 ft 140 kts 261°
2026-05-06 21:00 48.36607 11.81026 1462 ft 128 kts 262°
2026-05-06 21:00 48.36520 11.79921 1464 ft 82 kts 263°
2026-05-06 21:01 48.36471 11.79299 1469 ft 45 kts 262°
2026-05-06 21:01 48.36409 11.78932 1462 ft 30 kts 242°
2026-05-06 21:01 48.36295 11.78692 1459 ft 27 kts 232°
2026-05-06 21:01 48.36209 11.78529 1466 ft 17 kts 219°
2026-05-06 21:02 48.36150 11.78613 1466 ft 15 kts 87°
2026-05-06 21:02 48.36161 11.78763 1466 ft 14 kts 84°
2026-05-06 21:02 48.36171 11.78905 1469 ft 14 kts 83°
2026-05-06 21:02 48.36186 11.79091 1469 ft 20 kts 83°
2026-05-06 21:03 48.36178 11.79279 1466 ft 17 kts 131°
2026-05-06 21:03 48.36070 11.79324 1463 ft 19 kts 174°
2026-05-06 21:03 48.35930 11.79354 1460 ft 21 kts 155°
2026-05-06 21:03 48.35782 11.79395 1467 ft 22 kts 173°
2026-05-06 21:04 48.35717 11.79333 1461 ft 11 kts 271°
2026-05-06 21:04 48.35715 11.79292 1467 ft 0 kts 271°
2026-05-06 21:04 48.35717 11.79284 1468 ft 2 kts 281°
2026-05-06 21:04 48.35718 11.79277 1460 ft 0 kts 278°